Stations météo

réclame
Mon MeteoGroup
Hoogeveen aws, Pays-Bas (6279): Température de l'air & dewpoint: 15.10.2019 12:00:00 - 21.10.2019 12:00:00 (CEST)Hoogeveen aws, Pays-Bas (6279): Température de l'air 5cm: 15.10.2019 12:00:00 - 21.10.2019 12:00:00 (CEST)Hoogeveen aws, Pays-Bas (6279): Vitesse du vent & gusts: 15.10.2019 12:00:00 - 21.10.2019 12:00:00 (CEST)Hoogeveen aws, Pays-Bas (6279): Direction du vent: 15.10.2019 12:00:00 - 21.10.2019 12:00:00 (CEST)Hoogeveen aws, Pays-Bas (6279): reduced air pressure: 15.10.2019 12:00:00 - 21.10.2019 12:00:00 (CEST)Hoogeveen aws, Pays-Bas (6279): visibility: 15.10.2019 12:00:00 - 21.10.2019 12:00:00 (CEST)Hoogeveen aws, Pays-Bas (6279): Quantités de précipitations: 15.10.2019 12:00:00 - 21.10.2019 12:00:00 (CEST)
Date & Time tt [°C] td [°C] tt 5cm [°C] ff [km/h] ff [knt] fx [km/h] fx [knt] dd ppp [hPa] vv [km] rr [mm]
21.10.2019 12:00:00 12,4 12,4 12,5 9 5 - - SE 1015,4 3,2 -
21.10.2019 11:00:00 11,5 11,5 11,5 11 6 14 8 E 1014,8 2,1 0,7
21.10.2019 10:00:00 10,9 10,9 11,1 7 4 18 10 ENE 1014,6 0,9 0,0
21.10.2019 09:00:00 10,7 10,7 10,7 11 6 22 12 ENE 1013,9 1,8 0,0
21.10.2019 08:00:00 10,6 10,6 10,6 11 6 25 14 NE 1013,4 4,9 0,4
21.10.2019 07:00:00 10,5 10,5 10,5 14 8 25 14 NE 1012,8 2,7 0,2
21.10.2019 06:00:00 10,5 10,4 10,5 14 8 25 14 NE 1013,0 2,4 0,2
21.10.2019 05:00:00 10,5 10,3 10,5 14 8 22 12 NNE 1012,6 2,4 0,4
21.10.2019 04:00:00 11,0 10,0 10,8 11 6 22 12 NNE 1012,8 8 0,0
21.10.2019 03:00:00 11,1 9,6 10,7 14 8 25 14 NNE 1012,2 17 0,0
21.10.2019 02:00:00 10,9 9,7 10,5 14 8 25 14 NE 1012,1 14 0,0
21.10.2019 01:00:00 10,7 9,8 10,3 14 8 22 12 NE 1012,4 11 0,0
21.10.2019 00:00:00 10,5 9,7 10,1 11 6 18 10 N 1012,7 11 0,0
20.10.2019 23:00:00 10,6 10,0 10,1 11 6 18 10 NNE 1012,1 10 0,0
20.10.2019 22:00:00 10,7 10,6 10,3 11 6 14 8 NE 1011,9 6 0,0
20.10.2019 21:00:00 10,7 10,7 10,4 7 4 14 8 NNE 1011,7 4,4 0,0
20.10.2019 20:00:00 11,0 10,9 10,7 7 4 11 6 NNE 1011,4 4,1 0,0
20.10.2019 19:00:00 10,9 10,8 10,7 7 4 11 6 N 1011,0 3,8 0,0
20.10.2019 18:00:00 11,6 11,3 11,4 7 4 11 6 E 1010,2 5 0,0
20.10.2019 17:00:00 12,0 11,4 12,0 7 4 11 6 E 1010,2 8 0,0
20.10.2019 16:00:00 12,0 11,2 12,0 7 4 11 6 ESE 1010,0 8 0,0
20.10.2019 15:00:00 12,0 10,8 12,0 4 2 4 2 E 1009,8 9 0,0
20.10.2019 14:00:00 11,9 11,2 12,0 4 2 7 4 SSE 1009,7 8 0,0
20.10.2019 13:00:00 11,6 10,9 11,6 4 2 11 6 S 1009,9 7 0,0
20.10.2019 12:00:00 10,9 10,5 11,1 7 4 11 6 S 1009,7 4,9 0,0
20.10.2019 11:00:00 10,1 10,1 10,3 4 2 14 8 S 1009,4 2,8 0,0
20.10.2019 10:00:00 9,4 9,4 9,6 7 4 11 6 SSE 1008,7 0,8 0,0
20.10.2019 09:00:00 7,0 7,0 4,9 4 2 11 6 SSE 1008,3 0,4 0,0
20.10.2019 08:00:00 7,3 7,2 5,3 7 4 11 6 S 1008,0 0,7 0,0
20.10.2019 07:00:00 8,5 8,4 7,6 11 6 14 8 SSW 1007,2 5 0,0
20.10.2019 06:00:00 9,0 8,8 8,3 11 6 14 8 S 1007,2 7 0,0
20.10.2019 05:00:00 8,7 8,6 7,8 11 6 14 8 S 1006,8 7 0,0
20.10.2019 04:00:00 9,0 8,8 7,9 7 4 14 8 S 1006,7 9 0,0
20.10.2019 03:00:00 9,5 9,1 8,8 11 6 14 8 S 1006,8 10 0,0
20.10.2019 02:00:00 9,2 9,2 8,6 11 6 14 8 S 1006,8 9 0,0
20.10.2019 01:00:00 9,0 8,8 7,9 7 4 14 8 S 1006,6 9 0,0
20.10.2019 00:00:00 9,5 9,2 8,6 11 6 22 12 S 1006,2 12 0,0
19.10.2019 23:00:00 10,3 9,7 9,5 14 8 22 12 S 1005,7 16 0,0
19.10.2019 22:00:00 10,1 9,6 9,4 11 6 18 10 S 1005,2 19 0,0
19.10.2019 21:00:00 10,4 9,6 9,6 11 6 18 10 S 1004,9 33 0,0
19.10.2019 20:00:00 10,7 9,7 9,9 11 6 18 10 S 1004,5 41 0,0
19.10.2019 19:00:00 10,8 9,6 9,6 11 6 18 10 S 1004,3 50 0,0
19.10.2019 18:00:00 11,8 9,4 11,2 14 8 22 12 SSW 1003,9 50 0,0
19.10.2019 17:00:00 12,7 10,0 12,4 18 10 29 16 S 1003,3 47 0,0
19.10.2019 16:00:00 13,1 11,0 13,0 14 8 22 12 S 1003,2 46 0,0
19.10.2019 15:00:00 13,3 11,4 13,6 18 10 25 14 SSW 1003,2 38 0,0
19.10.2019 14:00:00 11,6 11,1 11,5 11 6 18 10 SW 1003,3 30 1,2
19.10.2019 13:00:00 10,7 10,5 10,8 7 4 25 14 SW 1003,4 7 2,3
19.10.2019 12:00:00 11,3 11,2 11,4 11 6 32 18 SW 1003,6 11 1,2
19.10.2019 11:00:00 12,0 10,9 12,3 18 10 36 19 S 1003,8 31 0,0
19.10.2019 10:00:00 11,7 10,2 11,6 25 14 40 21 S 1003,6 26 0,0
19.10.2019 09:00:00 10,9 9,6 10,5 22 12 36 19 S 1003,4 25 0,0
19.10.2019 08:00:00 10,7 9,0 10,1 22 12 32 18 S 1003,6 30 0,0
19.10.2019 07:00:00 10,8 8,7 10,3 22 12 36 19 S 1003,9 34 0,0
19.10.2019 06:00:00 10,5 8,3 10,0 22 12 32 18 S 1004,1 27 0,0
19.10.2019 05:00:00 9,8 7,6 8,7 18 10 25 14 S 1004,3 38 0,0
19.10.2019 04:00:00 9,6 7,4 8,8 18 10 32 18 S 1004,4 38 0,0
19.10.2019 03:00:00 9,8 7,2 8,7 18 10 32 18 S 1004,7 42 0,0
19.10.2019 02:00:00 10,0 7,1 9,1 22 12 32 18 S 1005,0 45 0,0
19.10.2019 01:00:00 10,0 7,0 9,1 18 10 32 18 S 1005,2 45 0,0
19.10.2019 00:00:00 10,4 7,2 9,6 22 12 36 19 SSW 1005,4 45 0,0
18.10.2019 23:00:00 10,5 7,4 9,5 22 12 36 19 SSW 1005,3 49 0,0
18.10.2019 22:00:00 10,6 7,6 9,7 25 14 43 23 SSW 1005,0 47 0,0
18.10.2019 21:00:00 10,8 7,3 9,8 22 12 40 21 SSW 1005,0 50 0,0
18.10.2019 20:00:00 11,3 7,3 10,4 25 14 40 21 SSW 1004,9 49 0,0
18.10.2019 19:00:00 11,4 7,7 10,6 25 14 43 23 SSW 1004,3 47 0,0
18.10.2019 18:00:00 12,1 8,4 11,5 25 14 36 19 SW 1003,7 37 0,0
18.10.2019 17:00:00 12,4 9,6 12,4 22 12 36 19 SW 1003,0 38 0,8
18.10.2019 16:00:00 11,5 9,7 11,1 22 12 54 29 SW 1002,4 16 1,3
18.10.2019 15:00:00 12,9 9,2 12,7 32 18 54 29 SSW 1001,6 46 0,0
18.10.2019 14:00:00 12,5 10,4 12,0 25 14 40 21 S 1001,1 46 0,0
18.10.2019 13:00:00 12,4 11,0 11,9 22 12 54 29 SSW 1001,2 14 3,7
18.10.2019 12:00:00 15,6 12,4 15,1 25 14 36 19 S 1001,5 42 0,0
18.10.2019 11:00:00 14,2 12,2 14,2 22 12 36 19 S 1002,8 40 0,0
18.10.2019 10:00:00 13,4 12,0 13,1 18 10 32 18 S 1003,6 34 0,0
18.10.2019 09:00:00 12,3 11,6 11,6 18 10 29 16 S 1004,1 30 0,0
18.10.2019 08:00:00 12,0 11,4 11,5 14 8 29 16 S 1004,4 37 0,4
18.10.2019 07:00:00 12,3 11,6 12,1 18 10 25 14 S 1004,9 10 0,7
18.10.2019 06:00:00 12,0 11,5 11,5 14 8 29 16 S 1005,6 12 0,0
18.10.2019 05:00:00 12,6 12,1 12,3 14 8 22 12 S 1006,4 9 0,0
18.10.2019 04:00:00 12,0 11,6 11,6 14 8 22 12 S 1006,8 6 0,0
18.10.2019 03:00:00 11,6 11,2 11,1 11 6 22 12 S 1007,7 5 0,0
18.10.2019 02:00:00 11,8 11,1 11,4 7 4 25 14 S 1008,0 9 0,0
18.10.2019 01:00:00 12,0 11,4 11,9 11 6 22 12 SSW 1008,3 10 0,0
18.10.2019 00:00:00 12,1 11,8 12,0 11 6 22 12 SSW 1008,5 10 0,0
17.10.2019 23:00:00 12,2 12,0 12,1 14 8 18 10 S 1009,0 9 0,0
17.10.2019 22:00:00 12,0 11,7 11,5 7 4 18 10 S 1008,9 10 0,0
17.10.2019 21:00:00 12,9 12,0 12,6 11 6 25 14 S 1009,0 17 0,0
17.10.2019 20:00:00 13,6 12,0 13,0 11 6 18 10 SSE 1009,2 13 0,0
17.10.2019 19:00:00 13,5 11,3 13,0 7 4 11 6 SSE 1009,1 18 0,0
17.10.2019 18:00:00 14,1 11,6 13,1 7 4 22 12 SSE 1009,1 21 0,0
17.10.2019 17:00:00 15,0 11,2 15,1 14 8 25 14 S 1009,6 30 0,0
17.10.2019 16:00:00 15,1 12,1 15,3 11 6 22 12 S 1009,7 32 0,0
17.10.2019 15:00:00 14,6 11,4 15,3 11 6 22 12 SSW 1010,0 27 0,0
17.10.2019 14:00:00 14,5 11,8 14,3 14 8 22 12 SSW 1010,3 21 0,0
17.10.2019 13:00:00 14,5 11,9 15,4 11 6 18 10 SSW 1010,2 19 0,0
17.10.2019 12:00:00 13,8 12,3 14,5 11 6 18 10 SW 1010,0 16 0,0
17.10.2019 11:00:00 12,9 12,2 13,2 11 6 14 8 SSW 1009,7 13 0,0
17.10.2019 10:00:00 12,1 11,9 12,2 4 2 22 12 SW 1009,3 9 0,1
17.10.2019 09:00:00 11,9 11,9 12,0 11 6 22 12 W 1008,6 3,0 0,6
17.10.2019 08:00:00 12,2 12,1 12,2 14 8 25 14 NW 1007,3 2,9 0,4
17.10.2019 07:00:00 13,5 13,5 13,4 14 8 25 14 SSW 1006,4 4,0 0,3
17.10.2019 06:00:00 13,4 13,3 13,3 14 8 25 14 SSW 1006,2 4,3 0,4
17.10.2019 05:00:00 13,4 13,3 13,3 14 8 29 16 SSW 1006,1 7 0,3
17.10.2019 04:00:00 13,5 13,1 13,3 18 10 32 18 SSW 1006,2 7 0,0
17.10.2019 03:00:00 13,6 13,3 13,4 18 10 32 18 SSW 1006,1 16 0,4
17.10.2019 02:00:00 13,7 13,5 13,5 18 10 36 19 SSW 1006,1 4,0 0,1
17.10.2019 01:00:00 13,7 13,6 13,6 22 12 32 18 S 1006,1 3,3 0,6
17.10.2019 00:00:00 13,8 13,5 13,6 18 10 29 16 S 1006,2 13 1,8
16.10.2019 23:00:00 13,8 13,6 13,6 18 10 29 16 S 1006,4 10 2,0
16.10.2019 22:00:00 13,7 13,5 13,5 22 12 32 18 S 1006,3 8 2,5
16.10.2019 21:00:00 13,6 13,5 13,4 18 10 29 16 S 1006,2 3,2 0,4
16.10.2019 20:00:00 13,4 13,3 13,3 18 10 29 16 S 1006,4 3,2 0,5
16.10.2019 19:00:00 13,2 13,1 13,1 18 10 25 14 S 1006,5 3,3 0,4
16.10.2019 18:00:00 13,1 12,9 13,1 14 8 25 14 S 1006,5 5 0,1
16.10.2019 17:00:00 13,4 12,3 13,3 22 12 29 16 S 1006,8 8 0,0
16.10.2019 16:00:00 13,8 12,0 13,8 18 10 36 19 S 1007,1 37 0,0
16.10.2019 15:00:00 14,7 11,7 14,6 14 8 36 19 S 1007,3 35 0,0
16.10.2019 14:00:00 14,9 11,5 15,4 18 10 32 18 SSW 1007,6 35 0,0
16.10.2019 13:00:00 14,4 11,4 15,3 18 10 25 14 S 1008,1 27 0,0
16.10.2019 12:00:00 13,9 11,5 13,9 14 8 25 14 S 1008,4 15 0,0
16.10.2019 11:00:00 12,1 11,2 12,2 14 8 29 16 SSW 1008,8 10 0,0
16.10.2019 10:00:00 11,5 10,6 11,4 18 10 25 14 SSW 1008,8 10 0,0
16.10.2019 09:00:00 11,3 10,6 11,1 18 10 29 16 SSW 1008,5 8 0,0
16.10.2019 08:00:00 11,4 11,1 11,1 18 10 22 12 SSW 1008,0 7 0,0
16.10.2019 07:00:00 11,9 11,5 11,6 14 8 22 12 SSW 1007,9 7 0,0
16.10.2019 06:00:00 12,1 11,8 11,9 11 6 18 10 SSW 1007,7 4,9 0,1
16.10.2019 05:00:00 12,5 12,2 12,3 11 6 22 12 SW 1007,7 5 0,3
16.10.2019 04:00:00 12,8 12,6 12,8 11 6 22 12 SW 1007,8 5 0,1
16.10.2019 03:00:00 13,0 12,8 12,9 11 6 18 10 SW 1007,6 4,3 0,0
16.10.2019 02:00:00 13,0 12,8 12,9 11 6 22 12 WSW 1007,5 5 0,2
16.10.2019 01:00:00 13,4 13,2 13,3 11 6 14 8 WSW 1007,2 3,6 0,3
16.10.2019 00:00:00 13,5 13,4 13,4 11 6 18 10 SSW 1007,4 3,8 0,9
15.10.2019 23:00:00 13,4 13,3 13,3 7 4 11 6 SSW 1007,5 4,5 0,8
15.10.2019 22:00:00 13,6 13,4 13,4 7 4 11 6 SSW 1007,3 6 0,7
15.10.2019 21:00:00 14,1 13,8 13,9 7 4 14 8 SW 1006,8 5 1,1
15.10.2019 20:00:00 14,1 13,7 13,7 7 4 11 6 S 1006,5 8 0,2
15.10.2019 19:00:00 14,4 13,7 13,7 7 4 11 6 SSE 1006,4 13 0,0
15.10.2019 18:00:00 15,3 13,8 14,9 7 4 14 8 W 1005,5 20 0,1
15.10.2019 17:00:00 16,5 13,5 16,0 7 4 22 12 SSW 1005,6 26 0,0
15.10.2019 16:00:00 17,4 13,5 18,0 18 10 25 14 SSW 1005,9 32 0,0
15.10.2019 15:00:00 16,4 13,2 16,5 14 8 25 14 SW 1005,9 30 0,0
15.10.2019 14:00:00 16,6 13,5 16,7 18 10 25 14 SW 1006,1 37 0,0
15.10.2019 13:00:00 17,1 14,3 - 11 6 22 12 SW 1005,8 25 0,0
15.10.2019 12:00:00 16,5 14,2 16,2 14 8 22 12 SSW 1006,0 24 0,0

tt = Température de l'air
td = dewpoint
tt 5cm = Température de l'air 5cm
ff = Vitesse du vent
fx = gusts
dd = Direction du vent
ppp = reduced air pressure
vv = visibility
rr = Quantités de précipitations

stations d'obs. à proximité